EW7961 Weather Reports


Display with metric or nautical units.
time (UTC)temp
F
wind
direction
speed
MPH
gust
MPH
rain 1hr
in
rain 24hr
in
rain mn
in
humidity
%
barometer
mb
20260901190526 99 298 2.0 4.0 0.00 0.00 0.00 38 1016.2
20260901185526 99 289 2.0 4.0 0.00 0.00 0.00 40 1016.4
20260901184541 98 292 2.0 2.0 0.00 0.00 0.00 41 1016.5
20260901183526 97 294 2.0 4.0 0.00 0.00 0.00 42 1016.6
20260901182526 97 300 1.0 2.0 0.00 0.00 0.00 42 1016.7
20260901181526 96 301 2.0 3.0 0.00 0.00 0.00 42 1016.8
20260901180541 96 278 3.0 4.0 0.00 0.00 0.00 44 1016.9
20260901175541 95 298 2.0 5.0 0.00 0.00 0.00 46 1017.1
20260901174527 95 288 2.0 5.0 0.00 0.00 0.00 46 1017.2
20260901173542 94 283 2.0 3.0 0.00 0.00 0.00 48 1017.3
20260901172527 94 298 2.0 4.0 0.00 0.00 0.00 48 1017.4
20260901171527 94 284 2.0 3.0 0.00 0.00 0.00 49 1017.5
20260901170527 93 293 2.0 4.0 0.00 0.00 0.00 50 1017.6
20260901165607 93 278 2.0 3.0 0.00 0.00 0.00 51 1017.6
20260901164527 92 276 2.0 3.0 0.00 0.00 0.00 51 1017.8
20260901163527 92 272 2.0 3.0 0.00 0.00 0.00 51 1017.8
20260901162527 92 294 2.0 3.0 0.00 0.00 0.00 51 1017.9
20260901161557 92 281 3.0 4.0 0.00 0.00 0.00 51 1017.8
20260901160528 91 269 1.0 2.0 0.00 0.00 0.00 53 1017.9
20260901155558 91 281 1.0 3.0 0.00 0.00 0.00 54 1017.9
20260901154543 90 288 2.0 3.0 0.00 0.00 0.00 55 1017.9
20260901153558 89 294 2.0 3.0 0.00 0.00 0.00 56 1018.0
20260901152543 88 282 2.0 2.0 0.00 0.00 0.00 57 1018.1
20260901151543 88 279 2.0 3.0 0.00 0.00 0.00 59 1018.1
20260901150543 87 282 2.0 2.0 0.00 0.00 0.00 61 1018.1
20260901145529 86 278 2.0 2.0 0.00 0.00 0.00 63 1018.0
20260901144609 85 277 2.0 2.0 0.00 0.00 0.00 65 1018.1
20260901143529 84 279 2.0 2.0 0.00 0.00 0.00 68 1018.2
20260901142558 83 274 2.0 3.0 0.00 0.00 0.00 69 1018.3
20260901141612 83 290 1.0 2.0 0.00 0.00 0.00 69 1018.3
20260901140529 82 280 2.0 3.0 0.00 0.00 0.00 70 1018.3
20260901135544 82 279 2.0 2.0 0.00 0.00 0.00 70 1018.4
20260901134629 81 278 2.0 2.0 0.00 0.00 0.00 71 1018.4
20260901133530 81 279 2.0 2.0 0.00 0.00 0.00 72 1018.4
20260901132650 81 275 2.0 3.0 0.00 0.00 0.00 72 1018.4
20260901131713 80 276 2.0 2.0 0.00 0.00 0.00 72 1018.4
20260901130615 80 271 2.0 2.0 0.00 0.00 0.00 72 1018.4
20260901125600 80 272 2.0 2.0 0.00 0.00 0.00 72 1018.3
20260901124530 80 272 2.0 2.0 0.00 0.00 0.00 74 1018.2
20260901123600 79 257 1.0 2.0 0.00 0.00 0.00 76 1018.1
20260901115114 77 278 2.0 2.0 0.00 0.00 0.00 78 1017.8
20260901114031 0 282 2.0 2.0 0.00 0.00 0.00
20260901113116 0 289 1.0 2.0 0.00 0.00 0.00
20260901112031 78 289 1.0 2.0 0.00 0.00 0.00 78 1017.7
20260901111116 78 298 1.0 2.0 0.00 0.00 0.00 78 1017.6
20260901105614 0 283 2.0 2.0 0.00 0.00 0.00
20260901104632 0 279 1.0 2.0 0.00 0.00 0.00
20260901103802 0 275 0.0 1.0 0.00 0.00 0.00
20260901101617 0 271 0.0 0.0 0.00 0.00 0.00
20260901095732 0 277 0.0 0.0 0.00 0.00 0.00
20260901094713 79 271 1.0 2.0 0.00 0.00 0.00 74 1017.1
20260901093628 79 278 2.0 2.0 0.00 0.00 0.00 74 1017.1
20260901092518 79 264 1.0 2.0 0.00 0.00 0.00 75 1017.0
20260901091533 79 294 1.0 2.0 0.00 0.00 0.00 75 1017.0
20260901090548 80 322 1.0 1.0 0.00 0.00 0.00 74 1016.9
20260901085628 80 281 1.0 1.0 0.00 0.00 0.00 74 1016.8
20260901084548 80 273 1.0 2.0 0.00 0.00 0.00 74 1016.7
20260901083548 0 281 1.0 1.0 0.00 0.00 0.00
20260901082629 80 275 1.0 1.0 0.00 0.00 0.00 73 1016.6
20260901081519 80 295 0.0 1.0 0.00 0.00 0.00 73 1016.5
20260901080618 80 288 1.0 2.0 0.00 0.00 0.00 73 1016.6
20260901075648 0 304 0.0 0.0 0.00 0.00 0.00
20260901074534 0 291 1.0 2.0 0.00 0.00 0.00
20260901073604 0 291 1.0 1.0 0.00 0.00 0.00
20260901072606 81 280 1.0 2.0 0.00 0.00 0.00 72 1016.5
20260901071615 81 283 1.0 2.0 0.00 0.00 0.00 72 1016.5
20260901070519 81 291 1.0 1.0 0.00 0.00 0.00 72 1016.5
20260901065529 82 286 1.0 2.0 0.00 0.00 0.00 71 1016.5
20260901064532 82 288 1.0 2.0 0.00 0.00 0.00 71 1016.5
20260901063517 82 280 1.0 2.0 0.00 0.00 0.00 70 1016.6
20260901062518 82 290 1.0 1.0 0.00 0.00 0.00 69 1016.5
20260901061518 83 286 1.0 2.0 0.00 0.00 0.00 69 1016.5
20260901060558 83 279 1.0 2.0 0.00 0.00 0.00 68 1016.4
20260901055518 83 283 1.0 2.0 0.00 0.00 0.00 67 1016.4
20260901054517 83 276 1.0 3.0 0.00 0.00 0.00 67 1016.5
20260901053530 83 286 1.0 2.0 0.00 0.00 0.00 67 1016.4
20260901052559 83 280 1.0 2.0 0.00 0.00 0.00 67 1016.4
20260901051604 83 282 1.0 3.0 0.00 0.00 0.00 67 1016.3
20260901050527 84 280 1.0 3.0 0.00 0.00 0.00 67 1016.3
20260901045524 84 285 2.0 3.0 0.00 0.00 0.00 67 1016.3
20260901044611 84 280 1.0 3.0 0.00 0.00 0.00 67 1016.4
20260901043524 84 279 2.0 3.0 0.00 0.00 0.00 66 1016.5
20260901042518 84 291 1.0 2.0 0.00 0.00 0.00 66 1016.4
20260901041519 84 284 1.0 2.0 0.00 0.00 0.00 66 1016.4
20260901040519 84 284 1.0 3.0 0.00 0.00 0.00 65 1016.4
20260901035520 85 283 1.0 3.0 0.00 0.00 0.00 65 1016.4
20260901034519 85 282 1.0 2.0 0.00 0.00 0.00 65 1016.4
20260901033519 85 282 1.0 4.0 0.00 0.00 0.00 64 1016.4
20260901032520 86 290 1.0 2.0 0.00 0.00 0.00 63 1016.3
20260901031654 86 295 1.0 2.0 0.00 0.00 0.00 63 1016.3
20260901030517 86 291 1.0 2.0 0.00 0.00 0.00 63 1016.3
20260901025557 86 286 0.0 2.0 0.00 0.00 0.00 63 1016.2
20260901024520 87 290 1.0 2.0 0.00 0.00 0.00 62 1016.2
20260901023520 87 293 1.0 4.0 0.00 0.00 0.00 62 1016.1
20260901022521 87 291 1.0 4.0 0.00 0.00 0.00 61 1016.1
20260901021601 88 290 1.0 2.0 0.00 0.00 0.00 60 1016.0
20260901020517 88 295 1.0 2.0 0.00 0.00 0.00 59 1015.9
20260901015557 89 285 1.0 4.0 0.00 0.00 0.00 58 1015.8
20260901014521 89 297 1.0 2.0 0.00 0.00 0.00 56 1015.6
20260901013517 90 289 1.0 2.0 0.00 0.00 0.00 55 1015.6
20260901012518 90 289 0.0 2.0 0.00 0.00 0.00 55 1015.4
20260901011518 91 297 1.0 2.0 0.00 0.00 0.00 55 1015.3
20260901010558 91 296 1.0 2.0 0.00 0.00 0.00 54 1015.2
20260901005558 92 297 0.0 2.0 0.00 0.00 0.00 53 1015.1
20260901004518 92 292 1.0 2.0 0.00 0.00 0.00 52 1015.1
20260901003639 93 278 0.0 1.0 0.00 0.00 0.00 51 1014.9
20260901002518 93 299 1.0 2.0 0.00 0.00 0.00 50 1014.9
20260901001519 94 295 1.0 2.0 0.00 0.00 0.00 50 1014.9
20260901000519 95 292 0.0 2.0 0.00 0.00 0.00 49 1014.9
20260831235519 95 302 1.0 2.0 0.00 0.00 0.00 47 1014.8
20260831234639 96 280 0.0 4.0 0.00 0.00 0.00 46 1014.8
20260831233519 97 295 2.0 4.0 0.00 0.00 0.00 44 1014.9
20260831232519 98 298 1.0 3.0 0.00 0.00 0.00 41 1014.8
20260831231516 99 288 1.0 4.0 0.00 0.00 0.00 40 1014.7
20260831230519 99 300 2.0 4.0 0.00 0.00 0.00 39 1014.7
20260831225521 99 294 1.0 4.0 0.00 0.00 0.00 38 1014.6
20260831224600 100 291 1.0 4.0 0.00 0.00 0.00 38 1014.6
20260831223520 101 293 1.0 3.0 0.00 0.00 0.00 38 1014.5
20260831222557 101 284 1.0 3.0 0.00 0.00 0.00 37 1014.6
20260831221517 102 296 2.0 5.0 0.00 0.00 0.00 37 1014.7
20260831220520 103 288 1.0 3.0 0.00 0.00 0.00 37 1014.8
20260831215518 103 298 0.0 2.0 0.00 0.00 0.00 36 1014.8
20260831214517 103 295 1.0 4.0 0.00 0.00 0.00 37 1014.7
20260831213518 103 281 2.0 3.0 0.00 0.00 0.00 37 1014.7
20260831212518 102 289 2.0 5.0 0.00 0.00 0.00 36 1014.6
20260831211521 102 288 2.0 5.0 0.00 0.00 0.00 36 1014.7
20260831210518 101 291 2.0 4.0 0.00 0.00 0.00 36 1014.8
20260831205518 101 291 1.0 4.0 0.00 0.00 0.00 37 1014.9
20260831204525 100 294 2.0 3.0 0.00 0.00 0.00 35 1014.9
20260831203605 100 295 1.0 3.0 0.00 0.00 0.00 36 1015.0
20260831202527 100 295 2.0 3.0 0.00 0.00 0.00 37 1015.1
20260831201608 100 285 3.0 4.0 0.00 0.00 0.00 39 1015.2
20260831200526 100 291 3.0 4.0 0.00 0.00 0.00 38 1015.3
20260831195526 99 288 1.0 3.0 0.00 0.00 0.00 39 1015.4
20260831194606 99 294 2.0 3.0 0.00 0.00 0.00 39 1015.5
20260831193526 98 294 1.0 3.0 0.00 0.00 0.00 39 1015.5
20260831192526 98 298 2.0 3.0 0.00 0.00 0.00 40 1015.6
20260831191606 98 287 2.0 3.0 0.00 0.00 0.00 40 1015.8